Weather History for Red Wing, MN

Change the Weather History Date:

Friday, December 6, 2013

  Actual Average Record
Temperature  
Mean Temperature 3 °F -  
Max Temperature 8 °F 34 °F 46 °F (2001)
Min Temperature -2 °F 19 °F -11 °F (2005)
Degree Days  
Heating Degree Days 62    
Moisture  
Dew Point -6 °F    
Average Humidity 72    
Maximum Humidity 78    
Minimum Humidity 62    
Precipitation  
Precipitation 0.00 in - - ()
Sea Level Pressure  
Sea Level Pressure 30.47 in    
Wind  
Wind Speed 9 mph (WNW)    
Max Wind Speed 12 mph    
Max Gust Speed 17 mph    
Visibility 10 miles    
Events      
Averages and records for this station are not official NWS values.
T = Trace of Precipitation, MM = Missing Value Source: NWS Daily Summary

Daily Weather History Graph

Daily Weather History Graph

Search for Another Location

Airport:

Trip Planner

Search our weather history database for the weather conditions in past years. The results will help you decide how hot, cold, wet, or windy it might be!

Date:

Astronomy

Dec. 06, 2013 Rise Set
Actual Time 7:32 AM CST 4:29 PM CST
Civil Twilight 6:59 AM CST 5:03 PM CST
Nautical Twilight 6:22 AM CST 5:39 PM CST
Astronomical Twilight 5:47 AM CST 6:14 PM CST
Moon 10:32 AM CST (12/6) 9:08 PM CST (12/6)
Length of Visible Light 10h 04m
Length of Day
8h 57m
Waxing Crescent, 19% of the Moon is Illuminated
Dec 6
Waxing Crescent
Dec 9
First Quarter
Dec 17
Full
Dec 25
Last Quarter
Jan 1
New

Hourly Weather History & Observations

Time (CST) Temp. Windchill Dew Point Humidity Pressure Visibility Wind Dir Wind Speed Gust Speed Precip Events Conditions
12:15 AM 3.2 °F -12.2 °F -2.2 °F 78% 30.34 in 10.0 mi West 10.4 mph - N/A   Scattered Clouds
12:35 AM 3.2 °F -11.3 °F -2.2 °F 78% 30.34 in 10.0 mi West 9.2 mph - N/A   Clear
12:54 AM 1.4 °F -15.3 °F -4.0 °F 78% 30.33 in 10.0 mi WNW 11.5 mph 17.3 mph N/A   Clear
1:15 AM 1.4 °F -12.5 °F -4.0 °F 78% 30.33 in 10.0 mi WNW 8.1 mph - N/A   Clear
1:35 AM 1.4 °F -14.5 °F -4.0 °F 78% 30.33 in 10.0 mi WNW 10.4 mph 16.1 mph N/A   Clear
1:55 AM 1.4 °F -12.5 °F -4.0 °F 78% 30.34 in 10.0 mi WNW 8.1 mph - N/A   Clear
2:15 AM 1.4 °F -12.5 °F -5.8 °F 72% 30.34 in 10.0 mi WNW 8.1 mph - N/A   Clear
2:35 AM 1.4 °F -13.5 °F -5.8 °F 72% 30.33 in 10.0 mi WNW 9.2 mph - N/A   Clear
2:55 AM 1.4 °F -12.5 °F -5.8 °F 72% 30.34 in 10.0 mi WNW 8.1 mph - N/A   Clear
3:15 AM 1.4 °F -11.3 °F -5.8 °F 72% 30.34 in 10.0 mi WNW 6.9 mph - N/A   Clear
3:35 AM -0.4 °F -14.7 °F -5.8 °F 78% 30.34 in 10.0 mi West 8.1 mph - N/A   Clear
3:55 AM -0.4 °F -15.7 °F -5.8 °F 78% 30.34 in 10.0 mi WNW 9.2 mph - N/A   Clear
4:15 AM -0.4 °F -12.0 °F -5.8 °F 78% 30.35 in 10.0 mi WNW 5.8 mph - N/A   Clear
4:35 AM -0.4 °F -13.4 °F -5.8 °F 78% 30.35 in 10.0 mi West 6.9 mph - N/A   Clear
4:55 AM -0.4 °F -15.7 °F -5.8 °F 78% 30.36 in 10.0 mi West 9.2 mph - N/A   Clear
5:15 AM -0.4 °F -16.7 °F -7.6 °F 72% 30.37 in 10.0 mi West 10.4 mph - N/A   Clear
5:35 AM -0.4 °F -14.7 °F -7.6 °F 72% 30.38 in 10.0 mi WNW 8.1 mph - N/A   Clear
5:55 AM -0.4 °F -14.7 °F -7.6 °F 72% 30.39 in 10.0 mi West 8.1 mph - N/A   Clear
6:15 AM -2.2 °F -18.0 °F -7.6 °F 78% 30.40 in 10.0 mi West 9.2 mph - N/A   Clear
6:35 AM -2.2 °F -18.9 °F -7.6 °F 78% 30.41 in 10.0 mi West 10.4 mph - N/A   Clear
6:55 AM -2.2 °F -14.2 °F -7.6 °F 78% 30.42 in 10.0 mi WNW 5.8 mph - N/A   Clear
7:15 AM -2.2 °F -18.0 °F -7.6 °F 78% 30.42 in 10.0 mi WNW 9.2 mph - N/A   Clear
7:35 AM -2.2 °F -16.8 °F -7.6 °F 78% 30.43 in 10.0 mi West 8.1 mph - N/A   Clear
7:55 AM -2.2 °F -15.6 °F -7.6 °F 78% 30.44 in 10.0 mi West 6.9 mph - N/A   Clear
8:15 AM -2.2 °F -18.0 °F -7.6 °F 78% 30.44 in 7.0 mi West 9.2 mph - N/A   Clear
8:35 AM -0.4 °F -14.7 °F -7.6 °F 72% 30.45 in 7.0 mi West 8.1 mph - N/A   Clear
8:55 AM -0.4 °F -15.7 °F -7.6 °F 72% 30.46 in 10.0 mi West 9.2 mph - N/A   Clear
9:15 AM -0.4 °F -16.7 °F -7.6 °F 72% 30.46 in 10.0 mi West 10.4 mph - N/A   Clear
9:35 AM 1.4 °F -13.5 °F -7.6 °F 66% 30.47 in 5.0 mi West 9.2 mph - N/A   Haze
9:55 AM 1.4 °F -12.5 °F -5.8 °F 72% 30.48 in 7.0 mi West 8.1 mph - N/A   Clear
10:15 AM 1.4 °F -14.5 °F -5.8 °F 72% 30.48 in 10.0 mi WNW 10.4 mph - N/A   Clear
10:35 AM 3.2 °F -11.3 °F -5.8 °F 66% 30.49 in 7.0 mi WNW 9.2 mph 16.1 mph N/A   Clear
10:55 AM 3.2 °F -10.3 °F -5.8 °F 66% 30.49 in 10.0 mi WNW 8.1 mph - N/A   Clear
11:15 AM 5.0 °F -8.1 °F -4.0 °F 66% 30.49 in 10.0 mi West 8.1 mph - N/A   Clear
11:35 AM 5.0 °F -5.6 °F -4.0 °F 66% 30.48 in 10.0 mi West 5.8 mph - N/A   Clear
11:55 AM 6.8 °F -7.8 °F -2.2 °F 67% 30.48 in 10.0 mi West 10.4 mph - N/A   Clear
12:15 PM 6.8 °F -7.8 °F -2.2 °F 67% 30.48 in 10.0 mi WNW 10.4 mph - N/A   Clear
12:35 PM 6.8 °F -5.9 °F -2.2 °F 67% 30.47 in 10.0 mi WNW 8.1 mph - N/A   Clear
12:55 PM 6.8 °F -4.8 °F -2.2 °F 67% 30.47 in 10.0 mi West 6.9 mph - N/A   Clear
1:15 PM 8.6 °F -3.7 °F -0.4 °F 67% 30.46 in 10.0 mi West 8.1 mph - N/A   Clear
1:35 PM 8.6 °F -4.7 °F -0.4 °F 67% 30.46 in 10.0 mi West 9.2 mph - N/A   Clear
1:55 PM 8.6 °F -6.3 °F -0.4 °F 67% 30.46 in 10.0 mi WNW 11.5 mph - N/A   Scattered Clouds
2:14 PM 8.6 °F -4.7 °F -2.2 °F 62% 30.46 in 10.0 mi West 9.2 mph - N/A   Scattered Clouds
2:35 PM 6.8 °F -7.8 °F -2.2 °F 67% 30.47 in 10.0 mi WNW 10.4 mph - N/A   Clear
2:55 PM 8.6 °F -3.7 °F -2.2 °F 62% 30.47 in 10.0 mi WNW 8.1 mph - N/A   Clear
3:14 PM 6.8 °F -6.9 °F -2.2 °F 67% 30.48 in 10.0 mi West 9.2 mph - N/A   Clear
3:35 PM 6.8 °F -6.9 °F -2.2 °F 67% 30.48 in 10.0 mi WNW 9.2 mph - N/A   Clear
3:55 PM 6.8 °F -7.8 °F -2.2 °F 67% 30.48 in 10.0 mi West 10.4 mph - N/A   Clear
4:15 PM 5.0 °F -6.9 °F -4.0 °F 66% 30.49 in 10.0 mi WNW 6.9 mph - N/A   Clear
4:35 PM 3.2 °F -10.3 °F -4.0 °F 72% 30.49 in 10.0 mi West 8.1 mph - N/A   Clear
4:55 PM 3.2 °F -11.3 °F -4.0 °F 72% 30.50 in 10.0 mi West 9.2 mph - N/A   Clear
5:15 PM 1.4 °F -13.5 °F -5.8 °F 72% 30.50 in 10.0 mi West 9.2 mph - N/A   Clear
5:35 PM 1.4 °F -15.3 °F -5.8 °F 72% 30.51 in 10.0 mi West 11.5 mph 16.1 mph N/A   Clear
5:55 PM 1.4 °F -13.5 °F -5.8 °F 72% 30.52 in 10.0 mi WNW 9.2 mph - N/A   Clear
6:15 PM 1.4 °F -15.3 °F -5.8 °F 72% 30.52 in 10.0 mi West 11.5 mph - N/A   Clear
6:35 PM 1.4 °F -14.5 °F -5.8 °F 72% 30.53 in 10.0 mi West 10.4 mph - N/A   Clear
6:55 PM -0.4 °F -16.7 °F -5.8 °F 78% 30.53 in 10.0 mi West 10.4 mph - N/A   Clear
7:15 PM -0.4 °F -16.7 °F -5.8 °F 78% 30.54 in 10.0 mi West 10.4 mph - N/A   Clear
7:34 PM -0.4 °F -15.7 °F -5.8 °F 78% 30.54 in 10.0 mi West 9.2 mph - N/A   Clear
7:55 PM -0.4 °F -15.7 °F -7.6 °F 72% 30.55 in 10.0 mi West 9.2 mph - N/A   Clear
8:15 PM -0.4 °F -14.7 °F -7.6 °F 72% 30.56 in 10.0 mi West 8.1 mph - N/A   Clear
8:34 PM -0.4 °F -15.7 °F -7.6 °F 72% 30.56 in 10.0 mi West 9.2 mph - N/A   Clear
8:55 PM -0.4 °F -13.4 °F -7.6 °F 72% 30.57 in 10.0 mi West 6.9 mph - N/A   Clear
9:15 PM -0.4 °F -13.4 °F -7.6 °F 72% 30.57 in 10.0 mi WNW 6.9 mph - N/A   Clear
9:34 PM -0.4 °F -15.7 °F -7.6 °F 72% 30.58 in 10.0 mi West 9.2 mph - N/A   Clear
9:55 PM -2.2 °F -16.8 °F -7.6 °F 78% 30.58 in 10.0 mi WNW 8.1 mph - N/A   Clear
10:15 PM -2.2 °F -14.2 °F -7.6 °F 78% 30.60 in 10.0 mi WNW 5.8 mph - N/A   Clear
10:35 PM -2.2 °F -15.6 °F -7.6 °F 78% 30.60 in 10.0 mi WNW 6.9 mph - N/A   Clear
10:55 PM -2.2 °F -18.0 °F -9.4 °F 71% 30.60 in 10.0 mi WNW 9.2 mph - N/A   Clear
11:15 PM -2.2 °F -16.8 °F -9.4 °F 71% 30.61 in 10.0 mi WNW 8.1 mph - N/A   Clear
11:34 PM -2.2 °F -18.0 °F -9.4 °F 71% 30.62 in 10.0 mi WNW 9.2 mph - N/A   Clear
11:55 PM -2.2 °F -16.8 °F -9.4 °F 71% 30.62 in 10.0 mi WNW 8.1 mph - N/A   Clear
11:59 PM -2.2 °F -16.8 °F -9.4 °F 71% 30.62 in 10.0 mi WNW 8.1 mph - N/A   Clear